M I D A S
Marine Information and Data Acquisition System
Tripno 1950 of the Zeeleeuw from 2010-09-01 06:23:04 to 2010-09-01 11:33:48
Back to CruiseResearch ActivitiesStationsMapUnderway DataData graphs

EquipmentUnitsComments
TimeDGPSUTC
LatitudeDGPSDM.mWGS84
LongitudeDGPSDM.mWGS84
SpeedMeteo Stationm/sRelative wind speed
DirectionMeteo StationdegRelative wind direction
TemperatureMeteo Stationdeg CelciusAir temperature
PressureMeteo StationPaAtmospheric pressure
HumidityMeteo Station%Relative humidity
Missing or incorrect values are displayed as -999
Metereological data collected by the RV Zeeleeuw from 2010-09-01 05:50:38 to 2010-09-01 11:30:41
                                                                                    Next 1000 lines
Time Latitude Longitude Speed Direction Temperature Pressure Humidity
2010-09-01 05:50:49 51°13.662 2°55.959 -999 324 12.5 102130 46
2010-09-01 05:50:53 51°13.663 2°55.958 -999 282 12.5 102120 46
2010-09-01 05:50:58 51°13.663 2°55.958 -999 324 12.5 102120 46
2010-09-01 05:51:03 51°13.663 2°55.958 -999 324 12.5 102130 46
2010-09-01 05:51:08 51°13.663 2°55.958 -999 326 12.5 102130 46
2010-09-01 05:51:13 51°13.663 2°55.958 -999 282 12.5 102130 46
2010-09-01 05:51:17 51°13.663 2°55.958 -999 320 12.5 102130 46
2010-09-01 05:51:22 51°13.663 2°55.959 -999 321 12.5 102130 46
2010-09-01 05:51:27 51°13.663 2°55.959 -999 320 12.5 102130 46
2010-09-01 05:51:33 51°13.663 2°55.959 -999 282 12.5 102130 46
2010-09-01 05:51:37 51°13.663 2°55.958 -999 319 12.5 102130 46
2010-09-01 05:51:42 51°13.663 2°55.958 -999 319 12.5 102130 46
2010-09-01 05:51:48 51°13.663 2°55.958 -999 319 12.5 102130 46
2010-09-01 05:51:53 51°13.663 2°55.958 -999 319 12.5 102130 46
2010-09-01 05:51:57 51°13.663 2°55.958 -999 323 12.5 102130 46
2010-09-01 05:52:02 51°13.663 2°55.958 -999 322 12.5 102130 45
2010-09-01 05:52:08 51°13.663 2°55.958 -999 322 12.5 102130 45
2010-09-01 05:52:12 51°13.663 2°55.958 -999 322 12.5 102130 46
2010-09-01 05:52:17 51°13.663 2°55.958 -999 322 12.5 102130 46
2010-09-01 05:52:22 51°13.663 2°55.958 -999 322 12.5 102130 46
2010-09-01 05:52:28 51°13.663 2°55.958 -999 323 12.5 102130 46
2010-09-01 05:52:33 51°13.663 2°55.958 -999 324 12.5 102130 46
2010-09-01 05:52:37 51°13.663 2°55.958 -999 324 12.5 102130 46
2010-09-01 05:52:42 51°13.663 2°55.958 -999 282 12.5 102130 46
2010-09-01 05:52:48 51°13.663 2°55.958 -999 324 12.5 102130 46
2010-09-01 05:52:53 51°13.663 2°55.958 -999 326 12.5 102130 46
2010-09-01 05:52:57 51°13.663 2°55.958 -999 324 12.5 102130 46
2010-09-01 05:53:02 51°13.663 2°55.958 -999 324 12.5 102130 46
2010-09-01 05:53:08 51°13.663 2°55.958 -999 322 12.5 102130 46
2010-09-01 05:53:13 51°13.663 2°55.958 -999 282 12.5 102130 46
2010-09-01 05:53:17 51°13.663 2°55.958 -999 321 12.5 102130 46
2010-09-01 05:53:22 51°13.662 2°55.958 -999 318 12.5 102130 46
2010-09-01 05:53:27 51°13.663 2°55.958 -999 321 12.5 102130 46
2010-09-01 05:53:33 51°13.662 2°55.958 -999 321 12.5 102130 46
2010-09-01 05:53:37 51°13.662 2°55.958 -999 35 12.5 102130 46
2010-09-01 05:53:42 51°13.662 2°55.958 -999 318 12.5 102130 46
2010-09-01 05:53:48 51°13.662 2°55.958 -999 35 12.5 102130 46
2010-09-01 05:53:53 51°13.662 2°55.958 -999 282 12.5 102130 46
2010-09-01 05:53:57 51°13.662 2°55.958 -999 317 12.5 102130 46
2010-09-01 05:54:02 51°13.662 2°55.958 -999 317 12.5 102130 46
2010-09-01 05:54:08 51°13.662 2°55.958 -999 325 12.5 102130 46
2010-09-01 05:54:12 51°13.663 2°55.958 -999 322 12.5 102130 46
2010-09-01 05:54:17 51°13.662 2°55.958 -999 318 12.5 102130 46
2010-09-01 05:54:22 51°13.662 2°55.958 -999 318 12.5 102130 46
2010-09-01 05:54:28 51°13.662 2°55.957 -999 317 12.5 102130 46
2010-09-01 05:54:33 51°13.662 2°55.958 -999 317 12.5 102130 46
2010-09-01 05:54:37 51°13.662 2°55.958 -999 317 12.5 102130 46
2010-09-01 05:54:42 51°13.662 2°55.958 -999 282 12.5 102130 45
2010-09-01 05:54:47 51°13.662 2°55.958 -999 317 12.5 102130 45
2010-09-01 05:54:53 51°13.662 2°55.958 -999 317 12.5 102130 46
2010-09-01 05:54:57 51°13.662 2°55.958 -999 316 12.5 102130 46
2010-09-01 05:55:02 51°13.662 2°55.958 -999 282 12.5 102130 46
2010-09-01 05:55:08 51°13.662 2°55.958 -999 327 12.5 102130 46
2010-09-01 05:55:13 51°13.663 2°55.958 -999 326 12.5 102130 46
2010-09-01 05:55:17 51°13.662 2°55.958 -999 328 12.5 102130 46
2010-09-01 05:55:21 51°13.662 2°55.958 -999 324 12.5 102130 46
2010-09-01 05:55:28 51°13.662 2°55.958 -999 323 12.5 102130 46
2010-09-01 05:55:32 51°13.663 2°55.958 -999 282 12.6 102130 46
2010-09-01 05:55:37 51°13.663 2°55.958 -999 324 12.6 102130 46
2010-09-01 05:55:42 51°13.662 2°55.958 -999 324 12.5 102130 46
2010-09-01 05:55:48 51°13.662 2°55.958 -999 35 12.5 102130 46
2010-09-01 05:55:53 51°13.663 2°55.958 -999 282 12.5 102130 46
2010-09-01 05:55:57 51°13.663 2°55.958 -999 35 12.5 102130 46
2010-09-01 05:56:02 51°13.662 2°55.958 -999 24 12.5 102130 46
2010-09-01 05:56:07 51°13.662 2°55.958 -999 35 12.5 102130 46
2010-09-01 05:56:13 51°13.662 2°55.958 -999 23 12.6 102130 46
2010-09-01 05:56:17 51°13.663 2°55.958 -999 324 12.6 102130 46
2010-09-01 05:56:22 51°13.662 2°55.958 -999 324 12.6 102130 46
2010-09-01 05:56:28 51°13.663 2°55.958 -999 325 12.6 102130 46
2010-09-01 05:56:33 51°13.662 2°55.958 -999 324 12.6 102130 46
2010-09-01 05:56:37 51°13.662 2°55.958 -999 324 12.6 102130 46
2010-09-01 05:56:42 51°13.662 2°55.958 -999 318 12.6 102130 46
2010-09-01 05:56:48 51°13.662 2°55.958 -999 317 12.6 102130 46
2010-09-01 05:56:52 51°13.662 2°55.958 -999 317 12.6 102130 46
2010-09-01 05:56:57 51°13.662 2°55.958 -999 318 12.6 102130 46
2010-09-01 05:57:02 51°13.662 2°55.958 -999 317 12.6 102130 46
2010-09-01 05:57:08 51°13.662 2°55.958 -999 317 12.6 102130 46
2010-09-01 05:57:13 51°13.662 2°55.958 -999 317 12.6 102130 46
2010-09-01 05:57:17 51°13.662 2°55.958 -999 318 12.6 102130 46
2010-09-01 05:57:22 51°13.662 2°55.958 -999 318 12.6 102130 45
2010-09-01 05:57:28 51°13.662 2°55.958 -999 319 12.6 102130 45
2010-09-01 05:57:33 51°13.662 2°55.958 -999 316 12.6 102130 46
2010-09-01 05:57:37 51°13.663 2°55.959 -999 324 12.6 102130 46
2010-09-01 05:57:42 51°13.663 2°55.959 -999 322 12.6 102130 46
2010-09-01 05:57:48 51°13.662 2°55.959 -999 328 12.6 102130 46
2010-09-01 05:57:53 51°13.662 2°55.959 -999 282 12.6 102130 46
2010-09-01 05:57:57 51°13.662 2°55.959 -999 324 12.6 102130 46
2010-09-01 05:58:02 51°13.662 2°55.959 -999 324 12.6 102130 46
2010-09-01 05:58:07 51°13.662 2°55.959 -999 317 12.6 102130 46
2010-09-01 05:58:13 51°13.662 2°55.959 -999 317 12.6 102130 46
2010-09-01 05:58:17 51°13.662 2°55.959 -999 317 12.6 102130 46
2010-09-01 05:58:22 51°13.662 2°55.959 -999 317 12.6 102130 46
2010-09-01 05:58:28 51°13.662 2°55.96 -999 35 12.6 102130 46
2010-09-01 05:58:33 51°13.662 2°55.959 -999 23 12.6 102130 46
2010-09-01 05:58:37 51°13.662 2°55.959 -999 317 12.6 102130 46
2010-09-01 05:58:42 51°13.662 2°55.959 -999 317 12.6 102130 46
2010-09-01 05:58:48 51°13.662 2°55.959 -999 317 12.6 102130 46
2010-09-01 05:58:52 51°13.662 2°55.959 -999 317 12.6 102130 46
2010-09-01 05:58:57 51°13.662 2°55.959 -999 317 12.6 102130 46
2010-09-01 05:59:02 51°13.662 2°55.96 -999 282 12.6 102130 46
2010-09-01 05:59:08 51°13.662 2°55.96 -999 35 12.6 102130 46
2010-09-01 05:59:13 51°13.662 2°55.959 -999 24 12.6 102130 46
2010-09-01 05:59:17 51°13.662 2°55.96 -999 317 12.6 102130 46
2010-09-01 05:59:22 51°13.662 2°55.96 -999 23 12.6 102130 46
2010-09-01 05:59:28 51°13.662 2°55.959 -999 316 12.6 102130 46
2010-09-01 05:59:33 51°13.662 2°55.959 -999 316 12.7 102130 46
2010-09-01 05:59:37 51°13.662 2°55.959 -999 317 12.7 102130 46
2010-09-01 05:59:42 51°13.662 2°55.959 -999 317 12.7 102130 46
2010-09-01 05:59:48 51°13.662 2°55.96 -999 317 12.7 102130 46
2010-09-01 05:59:53 51°13.662 2°55.959 -999 282 12.7 102130 46
2010-09-01 05:59:57 51°13.662 2°55.959 -999 317 12.7 102130 46
2010-09-01 06:00:02 51°13.663 2°55.959 -999 317 12.7 102130 45
2010-09-01 06:00:08 51°13.663 2°55.959 -999 319 12.7 102130 45
2010-09-01 06:00:13 51°13.663 2°55.959 -999 282 12.7 102130 46
2010-09-01 06:00:17 51°13.663 2°55.959 -999 236 12.7 102130 46
2010-09-01 06:00:22 51°13.663 2°55.959 -999 24 12.7 102130 46
2010-09-01 06:00:27 51°13.663 2°55.959 -999 318 12.7 102130 46
2010-09-01 06:00:33 51°13.662 2°55.959 -999 318 12.7 102130 46
2010-09-01 06:00:37 51°13.662 2°55.96 -999 35 12.7 102130 46
2010-09-01 06:00:41 51°13.662 2°55.96 -999 282 12.7 102130 46
2010-09-01 06:00:47 51°13.662 2°55.96 -999 35 12.7 102130 46
2010-09-01 06:00:52 51°13.662 2°55.96 -999 282 12.7 102130 46
2010-09-01 06:00:57 51°13.662 2°55.959 -999 35 12.7 102130 46
2010-09-01 06:01:02 51°13.661 2°55.96 -999 24 12.7 102130 46
2010-09-01 06:01:08 51°13.661 2°55.96 -999 35 12.7 102130 46
2010-09-01 06:01:13 51°13.661 2°55.96 -999 23 12.7 102130 46
2010-09-01 06:01:17 51°13.662 2°55.96 -999 35 12.7 102130 46
2010-09-01 06:01:22 51°13.662 2°55.959 -999 24 12.7 102130 46
2010-09-01 06:01:28 51°13.662 2°55.959 -999 317 12.7 102130 46
2010-09-01 06:01:32 51°13.662 2°55.959 -999 282 12.7 102130 46
2010-09-01 06:01:37 51°13.662 2°55.959 -999 321 12.7 102130 46
2010-09-01 06:01:42 51°13.662 2°55.959 -999 282 12.8 102130 46
2010-09-01 06:01:48 51°13.662 2°55.959 -999 35 12.8 102130 46
2010-09-01 06:01:53 51°13.662 2°55.96 -999 315 12.8 102130 46
2010-09-01 06:01:57 51°13.662 2°55.96 -999 318 12.8 102130 46
2010-09-01 06:02:02 51°13.662 2°55.96 -999 317 12.8 102130 46
2010-09-01 06:02:08 51°13.662 2°55.959 -999 35 12.8 102130 46
2010-09-01 06:02:13 51°13.662 2°55.96 -999 24 12.7 102130 46
2010-09-01 06:02:17 51°13.662 2°55.96 -999 315 12.7 102130 46
2010-09-01 06:02:22 51°13.662 2°55.959 -999 315 12.7 102130 46
2010-09-01 06:02:28 51°13.662 2°55.96 -999 35 12.7 102130 46
2010-09-01 06:02:33 51°13.662 2°55.96 -999 282 12.8 102130 46
2010-09-01 06:02:37 51°13.662 2°55.96 -999 319 12.8 102130 46
2010-09-01 06:02:42 51°13.662 2°55.96 -999 316 12.8 102130 45
2010-09-01 06:02:47 51°13.662 2°55.96 -999 35 12.8 102130 45
2010-09-01 06:02:52 51°13.662 2°55.96 -999 24 12.8 102130 46
2010-09-01 06:02:57 51°13.662 2°55.96 -999 321 12.8 102130 46
2010-09-01 06:03:02 51°13.662 2°55.96 -999 321 12.8 102130 46
2010-09-01 06:03:08 51°13.662 2°55.96 -999 35 12.8 102130 46
2010-09-01 06:03:13 51°13.662 2°55.96 -999 315 12.8 102130 46
2010-09-01 06:03:17 51°13.662 2°55.959 -999 317 12.8 102130 46
2010-09-01 06:03:22 51°13.662 2°55.96 -999 317 12.8 102130 46
2010-09-01 06:03:27 51°13.662 2°55.96 -999 317 12.8 102130 46
2010-09-01 06:03:32 51°13.662 2°55.96 -999 317 12.8 102130 46
2010-09-01 06:03:37 51°13.662 2°55.96 -999 321 12.8 102130 46
2010-09-01 06:03:41 51°13.662 2°55.96 -999 321 12.8 102130 46
2010-09-01 06:03:47 51°13.662 2°55.96 -999 317 12.8 102130 46
2010-09-01 06:03:52 51°13.662 2°55.96 -999 23 12.8 102130 46
2010-09-01 06:03:57 51°13.662 2°55.96 -999 35 12.8 102130 46
2010-09-01 06:04:02 51°13.662 2°55.96 -999 282 12.8 102130 46
2010-09-01 06:04:07 51°13.662 2°55.96 -999 35 12.8 102130 46
2010-09-01 06:04:12 51°13.662 2°55.96 -999 282 12.8 102130 46
2010-09-01 06:04:17 51°13.662 2°55.96 -999 35 12.8 102130 46
2010-09-01 06:04:22 51°13.662 2°55.96 -999 24 12.8 102130 46
2010-09-01 06:04:27 51°13.662 2°55.96 -999 319 12.8 102130 46
2010-09-01 06:04:32 51°13.662 2°55.96 -999 282 12.8 102130 46
2010-09-01 06:04:37 51°13.662 2°55.961 -999 319 12.8 102130 46
2010-09-01 06:04:41 51°13.662 2°55.961 -999 322 12.8 102130 46
2010-09-01 06:04:47 51°13.662 2°55.961 -999 318 12.8 102130 46
2010-09-01 06:04:52 51°13.662 2°55.961 -999 282 12.8 102130 46
2010-09-01 06:04:57 51°13.662 2°55.961 0.1 318 12.8 102130 46
2010-09-01 06:05:02 51°13.662 2°55.961 0.1 319 12.8 102130 46
2010-09-01 06:05:07 51°13.662 2°55.961 0.1 324 12.8 102130 46
2010-09-01 06:05:12 51°13.662 2°55.961 0.1 328 12.8 102130 46
2010-09-01 06:05:17 51°13.662 2°55.96 -999 324 12.8 102130 46
2010-09-01 06:05:22 51°13.661 2°55.961 -999 324 12.8 102130 45
2010-09-01 06:05:27 51°13.661 2°55.96 0.1 323 12.8 102130 45
2010-09-01 06:05:32 51°13.661 2°55.96 0.1 322 12.8 102130 46
2010-09-01 06:05:37 51°13.661 2°55.961 -999 321 12.8 102130 46
2010-09-01 06:05:42 51°13.661 2°55.961 -999 282 12.8 102130 46
2010-09-01 06:05:47 51°13.661 2°55.96 -999 326 12.8 102130 46
2010-09-01 06:05:52 51°13.661 2°55.96 -999 282 12.8 102130 46
2010-09-01 06:05:57 51°13.661 2°55.96 -999 329 12.8 102130 46
2010-09-01 06:06:02 51°13.661 2°55.96 -999 282 12.8 102130 46
2010-09-01 06:06:07 51°13.661 2°55.959 -999 334 12.8 102130 46
2010-09-01 06:06:12 51°13.661 2°55.959 -999 334 12.8 102130 46
2010-09-01 06:06:17 51°13.661 2°55.957 -999 334 12.8 102130 46
2010-09-01 06:06:22 51°13.661 2°55.954 -999 334 12.8 102130 46
2010-09-01 06:06:28 51°13.662 2°55.951 -999 334 12.8 102130 46
2010-09-01 06:06:32 51°13.663 2°55.947 -999 282 12.8 102130 46
2010-09-01 06:06:37 51°13.664 2°55.942 -999 334 12.8 102130 46
2010-09-01 06:06:43 51°13.666 2°55.935 -999 334 12.8 102130 46
2010-09-01 06:06:49 51°13.669 2°55.928 0.1 334 12.8 102130 46
2010-09-01 06:06:54 51°13.67 2°55.921 0.1 282 12.8 102130 46
2010-09-01 06:07:00 51°13.673 2°55.913 0.1 332 12.8 102130 46
2010-09-01 06:07:05 51°13.675 2°55.905 0.4 25 12.8 102130 46
2010-09-01 06:07:11 51°13.677 2°55.897 0.1 40 12.8 102130 46
2010-09-01 06:07:16 51°13.68 2°55.89 0.1 78 12.8 102130 46
2010-09-01 06:07:21 51°13.682 2°55.883 -999 35 12.8 102130 46
2010-09-01 06:07:26 51°13.684 2°55.875 -999 24 12.8 102130 46
2010-09-01 06:07:31 51°13.686 2°55.868 -999 35 12.8 102130 46
2010-09-01 06:07:36 51°13.688 2°55.861 0.1 18 12.8 102130 46
2010-09-01 06:07:41 51°13.689 2°55.854 0.1 35 12.8 102130 46
2010-09-01 06:07:46 51°13.691 2°55.846 -999 82 12.8 102130 46
2010-09-01 06:07:51 51°13.692 2°55.839 0.1 32 12.8 102130 46
2010-09-01 06:07:56 51°13.694 2°55.832 0.1 78 12.8 102130 46
2010-09-01 06:08:01 51°13.695 2°55.824 0.1 35 12.8 102130 46
2010-09-01 06:08:06 51°13.696 2°55.817 -999 78 12.8 102130 44
2010-09-01 06:08:11 51°13.697 2°55.809 0.1 33 12.8 102130 44
2010-09-01 06:08:16 51°13.698 2°55.801 0.2 78 12.8 102130 46
2010-09-01 06:08:21 51°13.699 2°55.793 0.1 32 12.8 102130 46
2010-09-01 06:08:26 51°13.699 2°55.786 0.1 21 12.8 102130 46
2010-09-01 06:08:31 51°13.699 2°55.778 0.1 35 12.8 102130 46
2010-09-01 06:08:36 51°13.699 2°55.771 -999 78 12.8 102130 46
2010-09-01 06:08:41 51°13.699 2°55.764 -999 35 12.8 102130 46
2010-09-01 06:08:46 51°13.698 2°55.758 -999 23 12.8 102130 46
2010-09-01 06:08:51 51°13.698 2°55.752 -999 35 12.8 102130 46
2010-09-01 06:08:56 51°13.697 2°55.747 1.4 43 12.8 102130 46
2010-09-01 06:09:01 51°13.696 2°55.743 0.4 32 12.8 102130 46
2010-09-01 06:09:05 51°13.696 2°55.741 0.2 32 12.8 102130 46
2010-09-01 06:09:10 51°13.696 2°55.738 0.1 13 12.8 102130 46
2010-09-01 06:09:15 51°13.695 2°55.737 0.3 1 12.8 102130 46
2010-09-01 06:09:21 51°13.695 2°55.737 0.3 359 12.8 102130 46
2010-09-01 06:09:25 51°13.695 2°55.738 0.2 359 12.8 102130 46
2010-09-01 06:09:30 51°13.695 2°55.74 0.2 353 12.8 102130 46
2010-09-01 06:09:34 51°13.696 2°55.742 0.2 355 12.8 102140 46
2010-09-01 06:09:40 51°13.697 2°55.745 0.3 351 12.8 102140 46
2010-09-01 06:09:45 51°13.698 2°55.747 0.2 351 12.8 102130 45
2010-09-01 06:09:49 51°13.698 2°55.749 0.4 1 12.8 102130 45
2010-09-01 06:09:54 51°13.698 2°55.751 0.3 1 12.8 102130 44
2010-09-01 06:09:59 51°13.698 2°55.751 0.3 6 12.8 102130 44
2010-09-01 06:10:04 51°13.697 2°55.751 0.3 16 12.8 102130 46
2010-09-01 06:10:09 51°13.695 2°55.751 0.6 23 12.8 102130 46
2010-09-01 06:10:13 51°13.694 2°55.75 0.7 25 12.8 102130 46
2010-09-01 06:10:18 51°13.692 2°55.749 0.2 27 12.8 102130 46
2010-09-01 06:10:23 51°13.69 2°55.748 0.1 31 12.8 102130 46
2010-09-01 06:10:29 51°13.687 2°55.746 0.1 32 12.8 102130 46
2010-09-01 06:10:34 51°13.686 2°55.746 0.1 31 12.8 102140 45
2010-09-01 06:10:40 51°13.685 2°55.746 0.2 17 12.8 102140 45
2010-09-01 06:10:45 51°13.686 2°55.747 0.4 16 12.8 102140 44
2010-09-01 06:10:51 51°13.688 2°55.75 0.2 4 12.8 102140 44
2010-09-01 06:10:56 51°13.69 2°55.752 0.2 3 12.8 102130 46
2010-09-01 06:11:01 51°13.693 2°55.754 0.4 358 12.8 102130 46
2010-09-01 06:11:06 51°13.696 2°55.755 0.3 358 12.8 102130 45
2010-09-01 06:11:11 51°13.7 2°55.756 0.4 -999 12.8 102130 45
2010-09-01 06:11:16 51°13.703 2°55.757 0.2 2 12.9 102130 46
2010-09-01 06:11:21 51°13.707 2°55.757 0.1 4 12.9 102130 46
2010-09-01 06:11:25 51°13.71 2°55.757 0.1 4 12.8 102130 46
2010-09-01 06:11:30 51°13.714 2°55.756 0.3 4 12.8 102130 46
2010-09-01 06:11:35 51°13.718 2°55.754 0.3 359 12.8 102130 46
2010-09-01 06:11:40 51°13.722 2°55.751 0.2 359 12.8 102130 46
2010-09-01 06:11:45 51°13.726 2°55.746 0.1 353 12.8 102130 46
2010-09-01 06:11:49 51°13.73 2°55.743 -999 349 12.8 102130 46
2010-09-01 06:11:54 51°13.734 2°55.738 0.1 278 12.8 102140 45
2010-09-01 06:11:59 51°13.738 2°55.732 0.2 349 12.8 102140 45
2010-09-01 06:12:04 51°13.742 2°55.725 0.2 348 12.9 102130 45
2010-09-01 06:12:09 51°13.747 2°55.718 0.1 340 12.9 102130 45
2010-09-01 06:12:13 51°13.75 2°55.712 0.1 341 12.8 102130 45
2010-09-01 06:12:19 51°13.757 2°55.703 -999 337 12.8 102130 45
2010-09-01 06:12:24 51°13.762 2°55.695 -999 339 12.8 102130 45
2010-09-01 06:12:28 51°13.767 2°55.689 -999 340 12.8 102130 45
2010-09-01 06:12:33 51°13.773 2°55.681 -999 340 12.8 102130 45
2010-09-01 06:12:38 51°13.78 2°55.673 -999 342 12.8 102130 45
2010-09-01 06:12:43 51°13.787 2°55.666 -999 282 12.8 102130 45
2010-09-01 06:12:48 51°13.794 2°55.659 0.4 341 12.8 102130 45
2010-09-01 06:12:53 51°13.802 2°55.651 0.3 336 12.8 102140 45
2010-09-01 06:12:57 51°13.809 2°55.646 0.7 342 12.8 102140 45
2010-09-01 06:13:02 51°13.817 2°55.64 0.5 343 12.9 102130 45
2010-09-01 06:13:07 51°13.825 2°55.633 0.3 345 12.9 102130 45
2010-09-01 06:13:12 51°13.834 2°55.627 0.3 345 12.8 102140 45
2010-09-01 06:13:17 51°13.843 2°55.621 1 339 12.8 102140 45
2010-09-01 06:13:22 51°13.852 2°55.615 0.8 340 12.8 102140 44
2010-09-01 06:13:27 51°13.861 2°55.608 1.3 337 12.8 102140 44
2010-09-01 06:13:32 51°13.87 2°55.601 0.8 286 12.8 102130 45
2010-09-01 06:13:37 51°13.879 2°55.595 1.1 335 12.8 102130 45
2010-09-01 06:13:42 51°13.888 2°55.588 1.2 337 12.8 102130 46
2010-09-01 06:13:47 51°13.898 2°55.581 1.6 339 12.8 102130 46
2010-09-01 06:13:52 51°13.907 2°55.573 1.7 283 12.8 102130 44
2010-09-01 06:13:57 51°13.917 2°55.566 1.3 338 12.8 102130 44
2010-09-01 06:14:02 51°13.926 2°55.559 1.4 284 12.8 102130 47
2010-09-01 06:14:07 51°13.936 2°55.552 1.7 339 12.8 102130 47
2010-09-01 06:14:12 51°13.946 2°55.545 1.9 338 12.8 102130 47
2010-09-01 06:14:17 51°13.956 2°55.538 1.7 339 12.8 102130 47
2010-09-01 06:14:22 51°13.966 2°55.53 1.6 341 12.8 102130 45
2010-09-01 06:14:27 51°13.976 2°55.523 1.7 339 12.8 102130 45
2010-09-01 06:14:32 51°13.986 2°55.516 1.6 282 12.8 102130 45
2010-09-01 06:14:37 51°13.997 2°55.508 2.2 336 12.8 102130 45
2010-09-01 06:14:42 51°14.007 2°55.5 2.2 285 12.8 102130 44
2010-09-01 06:14:47 51°14.018 2°55.493 2 338 12.8 102130 44
2010-09-01 06:14:52 51°14.029 2°55.484 1.8 338 12.8 102130 45
2010-09-01 06:14:57 51°14.04 2°55.476 2 337 12.8 102130 45
2010-09-01 06:15:02 51°14.051 2°55.468 2.2 279 12.8 102140 44
2010-09-01 06:15:07 51°14.062 2°55.46 1.9 338 12.8 102140 44
2010-09-01 06:15:12 51°14.073 2°55.452 2.3 282 12.8 102130 45
2010-09-01 06:15:17 51°14.085 2°55.444 2.1 340 12.8 102130 45
2010-09-01 06:15:22 51°14.096 2°55.436 2.1 340 12.9 102130 47
2010-09-01 06:15:27 51°14.107 2°55.427 1.7 340 12.9 102130 47
2010-09-01 06:15:33 51°14.121 2°55.417 1.8 279 12.9 102130 44
2010-09-01 06:15:37 51°14.13 2°55.409 2 339 12.9 102130 44
2010-09-01 06:15:43 51°14.143 2°55.399 2 339 12.9 102130 45
2010-09-01 06:15:49 51°14.157 2°55.388 2 339 12.9 102130 45
2010-09-01 06:15:53 51°14.166 2°55.38 1.9 278 12.9 102140 44
2010-09-01 06:15:59 51°14.18 2°55.369 2.2 334 12.9 102140 44
2010-09-01 06:16:04 51°14.192 2°55.358 2.4 334 12.9 102130 43
2010-09-01 06:16:09 51°14.203 2°55.348 3 338 12.9 102130 43
2010-09-01 06:16:15 51°14.217 2°55.335 2.8 284 12.9 102130 47
2010-09-01 06:16:20 51°14.229 2°55.324 2.7 337 12.9 102130 47
2010-09-01 06:16:25 51°14.241 2°55.312 2.7 338 12.9 102140 44
2010-09-01 06:16:29 51°14.251 2°55.303 2.7 338 12.9 102140 44
2010-09-01 06:16:34 51°14.263 2°55.293 2.9 338 12.9 102140 46
2010-09-01 06:16:39 51°14.275 2°55.281 1.8 339 12.9 102140 46
2010-09-01 06:16:44 51°14.287 2°55.27 1.7 284 12.9 102130 47
2010-09-01 06:16:49 51°14.3 2°55.259 1.4 337 12.9 102130 47
2010-09-01 06:16:53 51°14.309 2°55.25 1.6 338 12.9 102140 44
2010-09-01 06:16:58 51°14.321 2°55.238 2.1 338 12.9 102140 44
2010-09-01 06:17:04 51°14.336 2°55.225 2.1 337 12.9 102130 44
2010-09-01 06:17:09 51°14.348 2°55.214 1.9 337 12.9 102130 44
2010-09-01 06:17:13 51°14.358 2°55.206 1.9 337 12.9 102130 46
2010-09-01 06:17:18 51°14.37 2°55.194 2.4 337 12.9 102130 46
2010-09-01 06:17:23 51°14.382 2°55.182 2.2 336 12.9 102140 46
2010-09-01 06:17:28 51°14.394 2°55.17 2.1 336 12.9 102140 46
2010-09-01 06:17:33 51°14.406 2°55.158 2.4 279 12.9 102130 44
2010-09-01 06:17:37 51°14.416 2°55.148 2.5 335 12.9 102130 44
2010-09-01 06:17:42 51°14.429 2°55.135 2.4 334 12.9 102130 44
2010-09-01 06:17:48 51°14.444 2°55.119 2.7 334 12.9 102130 44
2010-09-01 06:17:53 51°14.457 2°55.107 2.8 334 12.9 102140 44
2010-09-01 06:17:57 51°14.468 2°55.096 3 336 12.9 102140 44
2010-09-01 06:18:02 51°14.481 2°55.082 3.1 336 12.9 102130 46
2010-09-01 06:18:07 51°14.494 2°55.067 3.4 332 12.9 102130 46
2010-09-01 06:18:12 51°14.508 2°55.052 3.2 283 12.9 102130 44
2010-09-01 06:18:17 51°14.522 2°55.038 3.3 333 12.9 102130 44
2010-09-01 06:18:22 51°14.535 2°55.022 3 335 12.9 102140 44
2010-09-01 06:18:27 51°14.55 2°55.009 3.4 334 12.9 102140 44
2010-09-01 06:18:32 51°14.565 2°54.994 4 285 12.9 102130 44
2010-09-01 06:18:37 51°14.579 2°54.98 3.3 334 12.9 102130 44
2010-09-01 06:18:42 51°14.594 2°54.965 4.3 280 12.9 102130 42
2010-09-01 06:18:47 51°14.609 2°54.951 4 335 12.9 102130 42
2010-09-01 06:18:52 51°14.624 2°54.936 4.1 285 12.9 102130 45
2010-09-01 06:18:57 51°14.64 2°54.921 4.1 337 12.9 102130 45
2010-09-01 06:19:02 51°14.654 2°54.905 4.1 278 12.9 102130 44
2010-09-01 06:19:07 51°14.669 2°54.888 2.6 336 12.9 102130 44
2010-09-01 06:19:12 51°14.685 2°54.873 4.4 336 12.9 102130 46
2010-09-01 06:19:17 51°14.7 2°54.857 3.8 337 12.9 102130 46
2010-09-01 06:19:22 51°14.715 2°54.841 3.4 337 13 102130 44
2010-09-01 06:19:28 51°14.733 2°54.822 4.1 337 13 102130 44
2010-09-01 06:19:33 51°14.748 2°54.805 3.9 336 13 102130 44
2010-09-01 06:19:37 51°14.76 2°54.793 3.8 338 13 102130 44
2010-09-01 06:19:42 51°14.775 2°54.777 3.9 337 13 102130 44
2010-09-01 06:19:48 51°14.793 2°54.758 3.9 337 13 102130 44
2010-09-01 06:19:53 51°14.808 2°54.742 4.2 285 13 102130 44
2010-09-01 06:19:59 51°14.826 2°54.723 3.7 337 13 102130 44
2010-09-01 06:20:05 51°14.844 2°54.704 4.1 283 13 102130 44
2010-09-01 06:20:10 51°14.858 2°54.687 4.5 336 13 102130 44
2010-09-01 06:20:16 51°14.876 2°54.668 3.4 284 13 102130 44
2010-09-01 06:20:21 51°14.89 2°54.651 3.3 338 13 102130 44
2010-09-01 06:20:26 51°14.905 2°54.634 3.7 336 13.1 102140 44
2010-09-01 06:20:31 51°14.919 2°54.617 3.6 338 13.1 102140 44
2010-09-01 06:20:36 51°14.934 2°54.599 4.1 283 13.1 102130 46
2010-09-01 06:20:41 51°14.948 2°54.582 3.7 336 13.1 102130 46
2010-09-01 06:20:45 51°14.959 2°54.569 3.7 335 13.1 102130 44
2010-09-01 06:20:50 51°14.973 2°54.551 3.5 337 13.1 102130 44
2010-09-01 06:20:55 51°14.988 2°54.534 3.5 336 13.1 102130 44
2010-09-01 06:21:00 51°15.002 2°54.517 3.7 334 13.1 102130 44
2010-09-01 06:21:05 51°15.017 2°54.5 3.7 284 13.1 102130 46
2010-09-01 06:21:10 51°15.032 2°54.485 3.8 338 13.1 102130 46
2010-09-01 06:21:14 51°15.044 2°54.471 3.3 336 13.1 102140 44
2010-09-01 06:21:20 51°15.062 2°54.453 3.8 342 13.1 102140 44
2010-09-01 06:21:25 51°15.077 2°54.436 3.5 339 13.2 102130 43
2010-09-01 06:21:29 51°15.089 2°54.422 3.8 338 13.2 102130 43
2010-09-01 06:21:34 51°15.104 2°54.405 4 278 13.2 102130 44
2010-09-01 06:21:39 51°15.118 2°54.387 3.8 338 13.2 102130 44
2010-09-01 06:21:44 51°15.132 2°54.369 4 279 13.2 102130 44
2010-09-01 06:21:49 51°15.146 2°54.352 3.9 335 13.2 102130 44
2010-09-01 06:21:53 51°15.158 2°54.338 3.7 283 13.2 102130 46
2010-09-01 06:21:58 51°15.172 2°54.32 3.7 339 13.2 102130 46
2010-09-01 06:22:03 51°15.186 2°54.302 4.2 339 13.2 102130 44
2010-09-01 06:22:08 51°15.201 2°54.285 4.2 337 13.2 102130 44
2010-09-01 06:22:13 51°15.215 2°54.267 4 283 13.2 102130 44
2010-09-01 06:22:17 51°15.227 2°54.253 4 340 13.2 102130 44
2010-09-01 06:22:22 51°15.241 2°54.235 4.1 340 13.3 102130 46
2010-09-01 06:22:27 51°15.256 2°54.218 3.8 339 13.3 102130 46
2010-09-01 06:22:32 51°15.271 2°54.2 3.5 284 13.3 102130 44
2010-09-01 06:22:37 51°15.285 2°54.183 3.7 338 13.3 102130 44
2010-09-01 06:22:42 51°15.3 2°54.165 3.5 284 13.3 102130 44
2010-09-01 06:22:47 51°15.314 2°54.147 4.2 340 13.3 102130 44
2010-09-01 06:22:52 51°15.328 2°54.129 3.6 285 13.3 102130 44
2010-09-01 06:22:57 51°15.343 2°54.112 3.4 338 13.3 102130 44
2010-09-01 06:23:02 51°15.358 2°54.095 4 280 13.3 102130 44
2010-09-01 06:23:07 51°15.372 2°54.077 4.2 339 13.3 102130 44
2010-09-01 06:23:12 51°15.387 2°54.059 3.5 341 13.4 102130 46
2010-09-01 06:23:17 51°15.401 2°54.042 3.8 337 13.4 102130 46
2010-09-01 06:23:22 51°15.416 2°54.024 3.9 338 13.4 102130 44
2010-09-01 06:23:27 51°15.43 2°54.006 3.8 340 13.4 102130 44
2010-09-01 06:23:32 51°15.445 2°53.988 4.1 339 13.4 102130 46
2010-09-01 06:23:37 51°15.459 2°53.97 3.9 338 13.4 102130 46
2010-09-01 06:23:42 51°15.474 2°53.953 4 284 13.4 102130 43
2010-09-01 06:23:47 51°15.489 2°53.936 3.6 337 13.4 102130 43
2010-09-01 06:23:52 51°15.503 2°53.918 3.7 283 13.4 102130 44
2010-09-01 06:23:57 51°15.517 2°53.9 3.5 339 13.4 102130 44
2010-09-01 06:24:02 51°15.532 2°53.882 4.3 284 13.4 102130 43
2010-09-01 06:24:07 51°15.546 2°53.865 4.2 337 13.4 102130 43
2010-09-01 06:24:12 51°15.561 2°53.847 3.7 339 13.4 102130 46
2010-09-01 06:24:17 51°15.576 2°53.829 4.1 338 13.4 102130 46
2010-09-01 06:24:22 51°15.59 2°53.812 3.8 338 13.4 102120 45
2010-09-01 06:24:28 51°15.608 2°53.791 3.9 338 13.4 102120 45
2010-09-01 06:24:32 51°15.619 2°53.777 3.7 279 13.5 102130 46
2010-09-01 06:24:37 51°15.634 2°53.76 3.8 339 13.5 102130 46
2010-09-01 06:24:42 51°15.648 2°53.742 3.8 339 13.5 102130 43
2010-09-01 06:24:47 51°15.663 2°53.725 4 339 13.5 102130 43
2010-09-01 06:24:52 51°15.678 2°53.708 3.7 285 13.5 102130 43
2010-09-01 06:24:57 51°15.692 2°53.691 3.9 338 13.5 102130 43
2010-09-01 06:25:02 51°15.707 2°53.674 3.7 335 13.5 102130 43
2010-09-01 06:25:07 51°15.722 2°53.657 3.9 339 13.5 102130 43
2010-09-01 06:25:12 51°15.736 2°53.64 3.7 283 13.5 102130 45
2010-09-01 06:25:17 51°15.75 2°53.622 4.1 338 13.5 102130 45
2010-09-01 06:25:21 51°15.762 2°53.609 3.8 339 13.5 102130 43
2010-09-01 06:25:27 51°15.779 2°53.588 3.7 339 13.5 102130 43
2010-09-01 06:25:32 51°15.793 2°53.571 4.2 341 13.5 102130 43
2010-09-01 06:25:37 51°15.808 2°53.554 4.1 341 13.5 102130 43
2010-09-01 06:25:42 51°15.822 2°53.537 4.1 285 13.5 102130 45
2010-09-01 06:25:47 51°15.837 2°53.52 4.7 338 13.5 102130 45
2010-09-01 06:25:52 51°15.851 2°53.503 4.2 279 13.6 102130 44
2010-09-01 06:25:57 51°15.865 2°53.486 4.5 341 13.6 102130 44
2010-09-01 06:26:02 51°15.88 2°53.469 3.9 280 13.6 102130 45
2010-09-01 06:26:07 51°15.894 2°53.452 4.1 340 13.6 102130 45
2010-09-01 06:26:12 51°15.909 2°53.434 4.1 339 13.6 102130 44
2010-09-01 06:26:17 51°15.923 2°53.418 3.8 339 13.6 102130 44
2010-09-01 06:26:22 51°15.938 2°53.401 4.4 338 13.6 102130 45
2010-09-01 06:26:28 51°15.955 2°53.38 4.4 337 13.6 102130 45
2010-09-01 06:26:32 51°15.967 2°53.367 4.8 285 13.6 102130 43
2010-09-01 06:26:37 51°15.982 2°53.35 4.3 338 13.6 102130 43
2010-09-01 06:26:42 51°15.996 2°53.333 4.2 339 13.6 102130 44
2010-09-01 06:26:47 51°16.011 2°53.317 4.1 340 13.6 102130 44
2010-09-01 06:26:52 51°16.026 2°53.301 3.9 339 13.6 102120 44
2010-09-01 06:26:57 51°16.041 2°53.285 4 341 13.6 102120 44
2010-09-01 06:27:02 51°16.057 2°53.27 3.6 339 13.6 102120 45
2010-09-01 06:27:07 51°16.072 2°53.254 4.1 338 13.6 102120 45
2010-09-01 06:27:12 51°16.088 2°53.239 3.4 285 13.6 102130 43
2010-09-01 06:27:17 51°16.103 2°53.223 3.8 339 13.6 102130 43
2010-09-01 06:27:22 51°16.119 2°53.21 4.4 337 13.6 102130 43
2010-09-01 06:27:32 51°16.151 2°53.182 4.2 278 13.7 102130 45
2010-09-01 06:27:37 51°16.167 2°53.168 3.8 336 13.7 102130 45
2010-09-01 06:27:47 51°16.199 2°53.141 3.9 337 13.7 102130 43
2010-09-01 06:27:52 51°16.215 2°53.127 4.4 284 13.7 102130 45
2010-09-01 06:27:52 51°16.215 2°53.127 4.8 339 13.7 102130 45
2010-09-01 06:28:06 51°16.26 2°53.09 3.7 338 13.7 102130 43
2010-09-01 06:28:06 51°16.26 2°53.09 4.6 337 13.7 102130 43
2010-09-01 06:28:16 51°16.293 2°53.063 4.8 341 13.7 102130 45
2010-09-01 06:28:21 51°16.309 2°53.05 3.7 339 13.7 102120 44
2010-09-01 06:28:35 51°16.354 2°53.012 4.8 341 13.7 102130 45
2010-09-01 06:28:40 51°16.371 2°52.999 4.6 341 13.7 102120 44
2010-09-01 06:28:53 51°16.412 2°52.963 4.1 284 13.8 102130 45
2010-09-01 06:29:04 51°16.447 2°52.932 4.1 339 13.8 102130 45
2010-09-01 06:29:05 51°16.45 2°52.93 4.1 339 13.8 102130 45
2010-09-01 06:29:24 51°16.512 2°52.878 4.4 285 13.8 102130 43
2010-09-01 06:29:29 51°16.528 2°52.865 3.9 337 13.8 102130 44
2010-09-01 06:29:54 51°16.609 2°52.797 3.5 280 13.8 102130 45
2010-09-01 06:30:08 51°16.654 2°52.76 4.1 338 13.9 102130 45
2010-09-01 06:30:13 51°16.67 2°52.746 4.3 284 13.9 102130 45
2010-09-01 06:30:23 51°16.702 2°52.72 4.7 280 13.9 102130 43
2010-09-01 06:30:41 51°16.761 2°52.672 4.7 341 13.9 102130 43
2010-09-01 06:31:04 51°16.836 2°52.611 4.3 284 13.9 102120 45
2010-09-01 06:32:19 51°17.079 2°52.411 3.3 334 14 102130 44
2010-09-01 06:32:19 51°17.079 2°52.411 3.3 334 14 102130 44
2010-09-01 06:32:29 51°17.112 2°52.385 3.4 335 14 102140 44
2010-09-01 06:33:00 51°17.212 2°52.302 4.2 338 14 102130 45
2010-09-01 06:33:13 51°17.255 2°52.268 4 283 14.1 102130 46
2010-09-01 06:33:32 51°17.316 2°52.216 3.9 340 14.1 102130 44
2010-09-01 06:33:37 51°17.333 2°52.203 4.3 342 14.1 102130 44
2010-09-01 06:33:42 51°17.349 2°52.19 5.3 340 14.1 102130 43
2010-09-01 06:33:42 51°17.349 2°52.19 4.1 284 14.1 102130 43
2010-09-01 06:34:00 51°17.409 2°52.143 4.6 343 14.2 102130 46
2010-09-01 06:34:04 51°17.422 2°52.132 3.8 285 14.2 102130 46
2010-09-01 06:34:04 51°17.422 2°52.132 3.7 339 14.2 102130 46
2010-09-01 06:34:39 51°17.537 2°52.037 3.3 337 14.2 102130 44
2010-09-01 06:34:54 51°17.584 2°51.99 3.4 333 14.2 102130 46
2010-09-01 06:35:41 51°17.723 2°51.832 3.5 332 14.3 102130 44
2010-09-01 06:35:45 51°17.735 2°51.819 3.8 336 14.3 102130 44
2010-09-01 06:35:51 51°17.751 2°51.796 3.4 335 14.3 102130 44
2010-09-01 06:35:56 51°17.765 2°51.777 3.3 335 14.3 102130 44
2010-09-01 06:36:01 51°17.779 2°51.758 3.9 335 14.3 102130 46
2010-09-01 06:36:06 51°17.792 2°51.739 4.4 336 14.3 102130 46
2010-09-01 06:36:11 51°17.805 2°51.72 3.7 333 14.3 102130 44
2010-09-01 06:36:16 51°17.817 2°51.7 3.9 331 14.3 102130 44
2010-09-01 06:36:21 51°17.83 2°51.68 3.3 331 14.3 102140 46
2010-09-01 06:36:25 51°17.84 2°51.664 3.3 333 14.3 102140 46
2010-09-01 06:36:31 51°17.856 2°51.64 3.7 334 14.3 102130 46
2010-09-01 06:36:36 51°17.869 2°51.62 4 334 14.3 102130 46
2010-09-01 06:36:41 51°17.882 2°51.6 3.8 332 14.4 102130 46
2010-09-01 06:36:46 51°17.895 2°51.58 4 333 14.4 102130 46
2010-09-01 06:36:51 51°17.907 2°51.56 3.6 331 14.4 102130 44
2010-09-01 06:36:57 51°17.922 2°51.535 4.1 332 14.4 102130 44
2010-09-01 06:37:01 51°17.933 2°51.519 3.8 333 14.4 102130 44
2010-09-01 06:37:06 51°17.945 2°51.498 3.9 333 14.4 102130 44
2010-09-01 06:37:11 51°17.958 2°51.478 3.3 333 14.4 102120 44
2010-09-01 06:37:16 51°17.97 2°51.458 3.1 331 14.4 102120 44
2010-09-01 06:37:21 51°17.983 2°51.437 3.5 335 14.4 102130 45
2010-09-01 06:37:26 51°17.996 2°51.417 3.8 284 14.4 102130 45
2010-09-01 06:37:31 51°18.009 2°51.397 3.3 335 14.4 102130 44
2010-09-01 06:37:36 51°18.022 2°51.376 3.2 333 14.4 102130 44
2010-09-01 06:37:41 51°18.034 2°51.356 3 334 14.4 102130 44
2010-09-01 06:37:45 51°18.044 2°51.339 2.8 331 14.4 102130 44
2010-09-01 06:37:51 51°18.059 2°51.314 3.4 333 14.4 102130 45
2010-09-01 06:37:56 51°18.071 2°51.294 4 333 14.4 102130 45
2010-09-01 06:38:01 51°18.084 2°51.273 3.2 334 14.4 102130 45
2010-09-01 06:38:06 51°18.096 2°51.253 2.9 332 14.4 102130 45
2010-09-01 06:38:11 51°18.109 2°51.232 3.9 334 14.5 102120 44
2010-09-01 06:38:16 51°18.122 2°51.212 3.7 330 14.5 102120 44
2010-09-01 06:38:21 51°18.134 2°51.191 3.7 335 14.5 102120 44
2010-09-01 06:38:25 51°18.144 2°51.175 3.4 336 14.5 102120 44
2010-09-01 06:38:31 51°18.159 2°51.15 3.4 331 14.5 102130 46
2010-09-01 06:38:36 51°18.172 2°51.13 4.1 335 14.5 102130 46
2010-09-01 06:38:41 51°18.184 2°51.11 3.6 334 14.5 102130 45
2010-09-01 06:38:46 51°18.197 2°51.089 3.5 334 14.5 102130 45
2010-09-01 06:38:51 51°18.21 2°51.068 3.9 333 14.5 102130 46
2010-09-01 06:38:56 51°18.222 2°51.048 3.9 333 14.5 102130 46
2010-09-01 06:39:01 51°18.235 2°51.028 3.3 330 14.5 102130 44
2010-09-01 06:39:05 51°18.245 2°51.011 3.4 334 14.5 102130 44
2010-09-01 06:39:11 51°18.261 2°50.987 3.4 333 14.5 102130 44
2010-09-01 06:39:16 51°18.273 2°50.966 3.6 332 14.5 102130 44
2010-09-01 06:39:21 51°18.286 2°50.946 3.8 333 14.5 102120 44
2010-09-01 06:39:26 51°18.299 2°50.925 3.2 333 14.5 102120 44
2010-09-01 06:39:31 51°18.311 2°50.905 3.5 334 14.5 102130 44
2010-09-01 06:39:36 51°18.324 2°50.884 3.1 337 14.5 102130 44
2010-09-01 06:39:41 51°18.337 2°50.864 3.1 336 14.5 102130 45
2010-09-01 06:39:45 51°18.347 2°50.847 3 331 14.5 102130 45
2010-09-01 06:39:51 51°18.362 2°50.822 3.2 331 14.5 102130 44
2010-09-01 06:39:56 51°18.374 2°50.801 3.8 332 14.5 102130 44
2010-09-01 06:40:01 51°18.387 2°50.781 3 332 14.6 102120 45
2010-09-01 06:40:06 51°18.399 2°50.76 3.6 334 14.6 102120 45
2010-09-01 06:40:11 51°18.412 2°50.739 3.6 334 14.5 102120 46
2010-09-01 06:40:16 51°18.425 2°50.718 3.6 334 14.5 102120 46
2010-09-01 06:40:21 51°18.438 2°50.698 3.7 336 14.5 102130 44
2010-09-01 06:40:25 51°18.448 2°50.681 3.5 335 14.5 102130 44
2010-09-01 06:40:31 51°18.463 2°50.656 3.5 335 14.6 102130 44
2010-09-01 06:40:36 51°18.476 2°50.636 3.2 334 14.6 102130 44
2010-09-01 06:40:41 51°18.489 2°50.615 3.6 335 14.6 102120 44
2010-09-01 06:40:46 51°18.501 2°50.594 3.6 331 14.6 102120 44
2010-09-01 06:40:51 51°18.514 2°50.573 3.8 330 14.6 102120 44
2010-09-01 06:40:57 51°18.53 2°50.549 4.1 333 14.6 102120 44
2010-09-01 06:41:01 51°18.54 2°50.531 4.4 330 14.6 102130 44
2010-09-01 06:41:06 51°18.552 2°50.511 3.4 330 14.6 102130 44
2010-09-01 06:41:11 51°18.565 2°50.49 3.9 332 14.6 102120 44
2010-09-01 06:41:16 51°18.578 2°50.469 3.8 331 14.6 102120 44
2010-09-01 06:41:21 51°18.591 2°50.448 3.8 334 14.6 102130 46
2010-09-01 06:41:26 51°18.603 2°50.427 3.7 332 14.6 102130 46
2010-09-01 06:41:31 51°18.616 2°50.407 4 332 14.6 102120 45
2010-09-01 06:41:36 51°18.628 2°50.386 3.4 331 14.6 102120 45
2010-09-01 06:41:41 51°18.641 2°50.366 4.3 333 14.6 102120 44
2010-09-01 06:41:46 51°18.654 2°50.344 4 336 14.6 102120 44
2010-09-01 06:41:51 51°18.666 2°50.324 4.6 335 14.6 102120 46
2010-09-01 06:41:56 51°18.679 2°50.304 4.8 335 14.6 102120 46
2010-09-01 06:42:01 51°18.691 2°50.283 4.7 333 14.6 102120 46
2010-09-01 06:42:05 51°18.701 2°50.266 4.7 334 14.6 102120 46
2010-09-01 06:42:11 51°18.717 2°50.242 5.3 335 14.6 102130 44
2010-09-01 06:42:16 51°18.729 2°50.221 4.9 339 14.6 102130 44
2010-09-01 06:42:21 51°18.742 2°50.201 3.8 338 14.6 102120 44
2010-09-01 06:42:26 51°18.754 2°50.18 4 337 14.6 102120 44
2010-09-01 06:42:31 51°18.767 2°50.16 4.4 340 14.6 102120 45
2010-09-01 06:42:37 51°18.782 2°50.136 4 336 14.6 102120 45
2010-09-01 06:42:41 51°18.792 2°50.119 4.1 338 14.6 102120 43
2010-09-01 06:42:45 51°18.802 2°50.103 4.7 334 14.6 102120 43
2010-09-01 06:42:51 51°18.817 2°50.078 4.9 333 14.7 102120 46
2010-09-01 06:42:56 51°18.83 2°50.058 4.2 337 14.7 102120 46
2010-09-01 06:43:01 51°18.843 2°50.037 4.2 337 14.7 102120 44
2010-09-01 06:43:06 51°18.855 2°50.017 5.2 341 14.7 102120 44
2010-09-01 06:43:11 51°18.868 2°49.997 4.9 339 14.6 102120 43
2010-09-01 06:43:16 51°18.88 2°49.977 5.1 340 14.6 102120 43
2010-09-01 06:43:21 51°18.893 2°49.956 5.4 340 14.6 102120 45
2010-09-01 06:43:25 51°18.903 2°49.94 6 338 14.6 102120 45
2010-09-01 06:43:31 51°18.918 2°49.916 5 340 14.6 102120 45
2010-09-01 06:43:36 51°18.93 2°49.896 5.6 341 14.6 102120 45
2010-09-01 06:43:41 51°18.943 2°49.875 6.1 341 14.6 102130 43
2010-09-01 06:43:46 51°18.955 2°49.855 6.1 344 14.6 102130 43
2010-09-01 06:43:51 51°18.968 2°49.836 5.6 344 14.6 102120 43
2010-09-01 06:43:57 51°18.983 2°49.811 6.6 344 14.6 102120 43
2010-09-01 06:44:01 51°18.993 2°49.795 5.5 343 14.6 102120 45
2010-09-01 06:44:06 51°19.005 2°49.775 5.2 344 14.6 102120 45
2010-09-01 06:44:11 51°19.018 2°49.755 5.7 344 14.6 102120 44
2010-09-01 06:44:16 51°19.03 2°49.735 5.6 346 14.6 102120 44
2010-09-01 06:44:21 51°19.043 2°49.715 6.1 343 14.6 102130 43
2010-09-01 06:44:26 51°19.056 2°49.695 5.3 343 14.6 102130 43
2010-09-01 06:44:31 51°19.068 2°49.674 5.5 346 14.6 102120 43
2010-09-01 06:44:36 51°19.081 2°49.655 5.2 346 14.6 102120 43
2010-09-01 06:44:41 51°19.094 2°49.635 4.8 346 14.6 102120 43
2010-09-01 06:44:45 51°19.104 2°49.618 4.6 346 14.6 102120 43
2010-09-01 06:44:51 51°19.119 2°49.594 5.1 345 14.6 102120 44
2010-09-01 06:44:56 51°19.132 2°49.574 5.1 347 14.6 102120 44
2010-09-01 06:45:01 51°19.145 2°49.554 5.3 345 14.6 102120 43
2010-09-01 06:45:06 51°19.157 2°49.533 5.2 344 14.6 102120 43
2010-09-01 06:45:11 51°19.17 2°49.513 5.8 343 14.6 102120 42
2010-09-01 06:45:16 51°19.183 2°49.493 5.2 345 14.6 102120 42
2010-09-01 06:45:21 51°19.195 2°49.473 4.6 344 14.6 102120 44
2010-09-01 06:45:25 51°19.205 2°49.457 5.7 343 14.6 102120 44
2010-09-01 06:45:31 51°19.221 2°49.434 5.2 344 14.6 102120 43
2010-09-01 06:45:36 51°19.234 2°49.413 4.8 344 14.6 102120 43
2010-09-01 06:45:41 51°19.247 2°49.393 5.2 344 14.7 102120 43
2010-09-01 06:45:46 51°19.259 2°49.373 4.9 341 14.7 102120 43
2010-09-01 06:45:51 51°19.272 2°49.353 4.6 341 14.7 102120 42
2010-09-01 06:45:56 51°19.285 2°49.333 5.6 346 14.7 102120 42
2010-09-01 06:46:01 51°19.297 2°49.312 4.9 346 14.7 102120 42
2010-09-01 06:46:05 51°19.308 2°49.296 5.1 347 14.7 102120 42
2010-09-01 06:46:11 51°19.323 2°49.271 4.4 344 14.7 102110 43
2010-09-01 06:46:16 51°19.335 2°49.251 4.6 344 14.7 102110 43
2010-09-01 06:46:21 51°19.348 2°49.231 4.2 341 14.7 102120 44
2010-09-01 06:46:26 51°19.36 2°49.211 4 345 14.7 102120 44
2010-09-01 06:46:31 51°19.373 2°49.19 5.1 342 14.7 102120 42
2010-09-01 06:46:36 51°19.386 2°49.17 4.5 344 14.7 102120 42
2010-09-01 06:46:41 51°19.398 2°49.149 4.1 344 14.7 102130 43
2010-09-01 06:46:45 51°19.408 2°49.133 5.4 344 14.7 102130 43
2010-09-01 06:46:51 51°19.423 2°49.108 5.6 348 14.7 102120 44
2010-09-01 06:46:56 51°19.436 2°49.088 5 344 14.7 102120 44
2010-09-01 06:47:01 51°19.449 2°49.067 4.7 348 14.7 102130 42
2010-09-01 06:47:06 51°19.461 2°49.047 4.5 349 14.7 102130 42
2010-09-01 06:47:11 51°19.474 2°49.026 5.6 344 14.8 102120 42
2010-09-01 06:47:16 51°19.487 2°49.006 5.3 349 14.8 102120 42
2010-09-01 06:47:21 51°19.499 2°48.985 5.3 348 14.8 102120 42
2010-09-01 06:47:25 51°19.509 2°48.969 3.3 349 14.8 102120 42
2010-09-01 06:47:31 51°19.525 2°48.945 5.1 348 14.8 102120 42
2010-09-01 06:47:36 51°19.538 2°48.924 5.5 352 14.8 102120 42
2010-09-01 06:47:41 51°19.551 2°48.905 5.7 344 14.8 102120 42
2010-09-01 06:47:46 51°19.563 2°48.884 5.6 343 14.8 102120 42
2010-09-01 06:47:51 51°19.576 2°48.864 4.8 342 14.8 102130 43
2010-09-01 06:47:56 51°19.589 2°48.845 5.5 344 14.8 102130 43
2010-09-01 06:48:01 51°19.602 2°48.824 5.5 343 14.8 102120 43
2010-09-01 06:48:05 51°19.612 2°48.808 5.9 343 14.8 102120 43
2010-09-01 06:48:11 51°19.628 2°48.784 6.4 340 14.8 102120 44
2010-09-01 06:48:16 51°19.641 2°48.764 6.9 353 14.8 102120 44
2010-09-01 06:48:21 51°19.654 2°48.744 7.3 353 14.8 102130 43
2010-09-01 06:48:26 51°19.667 2°48.724 6.5 351 14.8 102130 43
2010-09-01 06:48:31 51°19.68 2°48.705 6.1 347 14.8 102120 42
2010-09-01 06:48:36 51°19.693 2°48.684 6.7 346 14.8 102120 42
2010-09-01 06:48:41 51°19.706 2°48.665 6.5 345 14.9 102120 43
2010-09-01 06:48:45 51°19.716 2°48.648 6.6 347 14.9 102120 43
2010-09-01 06:48:51 51°19.733 2°48.625 6.8 348 14.9 102110 42
2010-09-01 06:48:56 51°19.746 2°48.605 6.6 345 14.9 102110 42
2010-09-01 06:49:01 51°19.759 2°48.585 6.7 345 14.9 102110 44
2010-09-01 06:49:06 51°19.772 2°48.564 5.9 344 14.9 102110 44
2010-09-01 06:49:11 51°19.784 2°48.543 5.6 346 14.9 102120 44
2010-09-01 06:49:17 51°19.799 2°48.519 5.6 344 14.9 102120 44
2010-09-01 06:49:21 51°19.808 2°48.502 5.9 344 14.9 102120 44
2010-09-01 06:49:26 51°19.821 2°48.481 5.9 347 14.9 102120 44
2010-09-01 06:49:31 51°19.833 2°48.46 5.5 344 14.9 102110 44
2010-09-01 06:49:37 51°19.848 2°48.434 6.4 345 14.9 102110 44
2010-09-01 06:49:41 51°19.857 2°48.417 6.3 348 14.9 102120 43
2010-09-01 06:49:46 51°19.869 2°48.396 5.8 349 14.9 102120 43
2010-09-01 06:49:51 51°19.881 2°48.374 6.1 347 14.9 102120 42
2010-09-01 06:49:56 51°19.894 2°48.353 5.5 348 14.9 102120 42
2010-09-01 06:50:01 51°19.906 2°48.332 5.2 349 14.9 102120 42
2010-09-01 06:50:05 51°19.916 2°48.315 5.4 346 14.9 102120 42
2010-09-01 06:50:11 51°19.93 2°48.289 5.4 346 14.9 102120 43
2010-09-01 06:50:16 51°19.942 2°48.267 5.5 349 14.9 102120 43
2010-09-01 06:50:21 51°19.954 2°48.246 5.7 348 14.9 102120 43
2010-09-01 06:50:26 51°19.966 2°48.225 6.3 348 14.9 102120 43
2010-09-01 06:50:31 51°19.979 2°48.203 5.6 351 14.9 102120 42
2010-09-01 06:50:36 51°19.99 2°48.181 6 351 14.9 102120 42
2010-09-01 06:50:41 51°20.003 2°48.161 5.7 350 15 102120 43
2010-09-01 06:50:45 51°20.012 2°48.143 5.7 350 15 102120 43
2010-09-01 06:50:51 51°20.027 2°48.118 5.4 350 15 102120 42
2010-09-01 06:50:56 51°20.039 2°48.096 6.2 347 15 102120 42
2010-09-01 06:51:01 51°20.051 2°48.075 5.3 344 14.9 102120 43
2010-09-01 06:51:06 51°20.062 2°48.053 6.6 345 14.9 102120 43
2010-09-01 06:51:11 51°20.074 2°48.032 5.5 343 14.9 102120 43
2010-09-01 06:51:17 51°20.088 2°48.005 6.1 344 14.9 102120 43
2010-09-01 06:51:21 51°20.097 2°47.987 5.8 347 14.9 102120 43
2010-09-01 06:51:25 51°20.106 2°47.97 5.8 347 14.9 102120 43
2010-09-01 06:51:31 51°20.12 2°47.944 5.3 345 15 102130 43
2010-09-01 06:51:36 51°20.131 2°47.922 5.5 348 15 102130 43
2010-09-01 06:51:41 51°20.143 2°47.901 5.8 349 14.9 102120 41
2010-09-01 06:51:46 51°20.154 2°47.879 5.1 346 14.9 102120 41
2010-09-01 06:51:51 51°20.166 2°47.858 6 346 14.9 102120 42
2010-09-01 06:51:56 51°20.178 2°47.837 5.8 342 14.9 102120 42
2010-09-01 06:52:01 51°20.19 2°47.816 5.9 345 15 102130 42
2010-09-01 06:52:05 51°20.199 2°47.799 5.9 342 15 102130 42
2010-09-01 06:52:11 51°20.213 2°47.773 5.6 346 15 102120 42
2010-09-01 06:52:16 51°20.225 2°47.753 6.3 343 15 102120 42
2010-09-01 06:52:21 51°20.237 2°47.732 5.6 344 15 102120 42
2010-09-01 06:52:26 51°20.248 2°47.711 5.6 343 15 102120 42
2010-09-01 06:52:31 51°20.26 2°47.69 5.4 344 15 102120 42
2010-09-01 06:52:36 51°20.272 2°47.669 5.3 344 15 102120 42
2010-09-01 06:52:41 51°20.283 2°47.648 5.3 345 15 102120 43
2010-09-01 06:52:45 51°20.293 2°47.631 5.1 344 15 102120 43
2010-09-01 06:52:51 51°20.307 2°47.606 4.9 345 15 102120 43
2010-09-01 06:52:56 51°20.319 2°47.585 5.5 344 15 102120 43
2010-09-01 06:53:01 51°20.33 2°47.564 5.4 342 15 102130 41
2010-09-01 06:53:06 51°20.342 2°47.543 5.9 343 15 102130 41
2010-09-01 06:53:11 51°20.354 2°47.521 5.6 344 15 102120 42
2010-09-01 06:53:17 51°20.368 2°47.496 6 345 15 102120 42
2010-09-01 06:53:21 51°20.377 2°47.48 6 346 15 102130 41
2010-09-01 06:53:25 51°20.386 2°47.463 5.8 347 15 102130 41
2010-09-01 06:53:31 51°20.4 2°47.438 5.9 345 15 102130 42
2010-09-01 06:53:36 51°20.412 2°47.417 5.3 346 15 102130 42
2010-09-01 06:53:41 51°20.423 2°47.396 5.2 343 15 102130 42
2010-09-01 06:53:46 51°20.435 2°47.375 6.2 348 15 102130 42
2010-09-01 06:53:51 51°20.446 2°47.354 5.3 348 15 102120 42
2010-09-01 06:53:57 51°20.46 2°47.329 5.9 348 15 102120 42
2010-09-01 06:54:01 51°20.47 2°47.313 5.5 347 15.1 102130 44
2010-09-01 06:54:05 51°20.479 2°47.296 6 349 15.1 102130 44
2010-09-01 06:54:11 51°20.493 2°47.271 5.7 350 15.1 102130 44
2010-09-01 06:54:16 51°20.505 2°47.25 5 348 15.1 102130 44
2010-09-01 06:54:21 51°20.516 2°47.228 4.8 349 15.1 102130 42
2010-09-01 06:54:26 51°20.528 2°47.207 5.5 345 15.1 102130 42
2010-09-01 06:54:31 51°20.539 2°47.186 6 349 15 102130 42
2010-09-01 06:54:37 51°20.553 2°47.161 5.3 349 15 102130 42
2010-09-01 06:54:41 51°20.563 2°47.144 5.7 354 15 102130 43
2010-09-01 06:54:46 51°20.574 2°47.123 5.5 351 15 102130 43
2010-09-01 06:54:51 51°20.586 2°47.102 5.1 352 15 102130 41
2010-09-01 06:54:56 51°20.598 2°47.082 5.8 346 15 102130 41
2010-09-01 06:55:01 51°20.61 2°47.06 5.4 347 15.1 102130 43
2010-09-01 06:55:06 51°20.622 2°47.04 4.7 347 15.1 102130 43
2010-09-01 06:55:11 51°20.633 2°47.019 4.7 345 15.1 102120 42
2010-09-01 06:55:16 51°20.645 2°46.998 5.3 348 15.1 102120 42
2010-09-01 06:55:21 51°20.657 2°46.977 5.9 343 15.1 102130 44
2010-09-01 06:55:25 51°20.666 2°46.96 5 282 15.1 102130 44
2010-09-01 06:55:31 51°20.68 2°46.935 5 346 15.1 102120 42
2010-09-01 06:55:36 51°20.692 2°46.914 5.8 347 15.1 102120 42
2010-09-01 06:55:41 51°20.704 2°46.893 5.8 348 15.1 102130 42
2010-09-01 06:55:46 51°20.716 2°46.872 5.4 347 15.1 102130 42
2010-09-01 06:55:51 51°20.728 2°46.852 5.5 347 15.1 102130 43
2010-09-01 06:55:57 51°20.742 2°46.826 5 348 15.1 102130 43
2010-09-01 06:56:01 51°20.752 2°46.81 5.1 345 15.1 102130 42
2010-09-01 06:56:05 51°20.761 2°46.793 5.4 345 15.1 102130 42
2010-09-01 06:56:11 51°20.776 2°46.768 6 347 15.1 102120 42
2010-09-01 06:56:16 51°20.787 2°46.747 5.7 348 15.1 102120 42
2010-09-01 06:56:21 51°20.799 2°46.726 5.2 347 15.1 102130 41
2010-09-01 06:56:26 51°20.811 2°46.705 5.8 346 15.1 102130 41
2010-09-01 06:56:31 51°20.823 2°46.684 5.2 348 15.1 102130 42
2010-09-01 06:56:36 51°20.835 2°46.663 5.1 350 15.1 102130 42
2010-09-01 06:56:41 51°20.847 2°46.642 5.2 346 15.1 102130 42
2010-09-01 06:56:45 51°20.857 2°46.626 5.3 345 15.1 102130 42
2010-09-01 06:56:51 51°20.871 2°46.601 5.8 346 15.1 102130 43
2010-09-01 06:56:56 51°20.883 2°46.581 5.2 342 15.1 102130 43
2010-09-01 06:57:01 51°20.895 2°46.559 5.2 347 15.1 102130 42
2010-09-01 06:57:06 51°20.907 2°46.538 5.2 347 15.1 102130 42
2010-09-01 06:57:11 51°20.919 2°46.517 5.8 348 15.1 102140 44
2010-09-01 06:57:16 51°20.931 2°46.497 5.2 350 15.1 102140 44
2010-09-01 06:57:21 51°20.942 2°46.475 5.6 348 15.1 102120 42
2010-09-01 06:57:25 51°20.952 2°46.459 5.1 352 15.1 102120 42
2010-09-01 06:57:31 51°20.966 2°46.434 4.8 349 15.1 102130 43
2010-09-01 06:57:36 51°20.978 2°46.413 5.8 350 15.1 102130 43
2010-09-01 06:57:41 51°20.99 2°46.392 5.3 352 15.1 102130 44
2010-09-01 06:57:46 51°21.002 2°46.371 4.8 352 15.1 102130 44
2010-09-01 06:57:51 51°21.014 2°46.35 4.5 351 15.1 102130 42
2010-09-01 06:57:57 51°21.029 2°46.325 4.9 355 15.1 102130 42
2010-09-01 06:58:01 51°21.038 2°46.308 4.3 349 15.1 102130 41
2010-09-01 06:58:05 51°21.048 2°46.292 5.6 352 15.1 102130 41
2010-09-01 06:58:11 51°21.062 2°46.267 5.4 352 15.1 102130 41
2010-09-01 06:58:16 51°21.074 2°46.246 5.2 354 15.1 102130 41
2010-09-01 06:58:21 51°21.086 2°46.225 4.7 353 15.1 102130 41
2010-09-01 06:58:26 51°21.098 2°46.204 4.7 352 15.1 102130 41
2010-09-01 06:58:31 51°21.111 2°46.184 4.6 352 15.1 102140 43
2010-09-01 06:58:36 51°21.123 2°46.163 4.8 350 15.1 102140 43
2010-09-01 06:58:41 51°21.135 2°46.142 5.5 352 15.1 102130 40
2010-09-01 06:58:45 51°21.145 2°46.125 5.3 355 15.1 102130 40
2010-09-01 06:58:51 51°21.159 2°46.099 4.9 352 15.1 102140 41
2010-09-01 06:58:56 51°21.171 2°46.078 4.6 353 15.1 102140 41
2010-09-01 06:59:01 51°21.183 2°46.058 5.1 353 15.1 102130 43
2010-09-01 06:59:06 51°21.196 2°46.037 4.6 352 15.1 102130 43
2010-09-01 06:59:11 51°21.208 2°46.016 4.8 356 15.1 102130 41
2010-09-01 06:59:17 51°21.223 2°45.991 5.2 355 15.1 102130 41
2010-09-01 06:59:21 51°21.233 2°45.974 5.4 355 15.1 102130 41
2010-09-01 06:59:26 51°21.245 2°45.953 4.9 2 15.1 102130 41
2010-09-01 06:59:31 51°21.257 2°45.932 5.4 349 15.1 102130 41
2010-09-01 06:59:36 51°21.27 2°45.912 4.6 351 15.1 102130 41
2010-09-01 06:59:41 51°21.281 2°45.89 5.7 348 15.1 102140 41
2010-09-01 06:59:46 51°21.294 2°45.87 5.6 350 15.1 102140 41
2010-09-01 06:59:51 51°21.306 2°45.848 5.7 351 15.1 102130 43
2010-09-01 06:59:56 51°21.318 2°45.828 5.7 351 15.1 102130 43
2010-09-01 07:00:01 51°21.33 2°45.806 5.6 351 15.1 102130 41
2010-09-01 07:00:05 51°21.34 2°45.789 5.6 347 15.1 102130 41
2010-09-01 07:00:11 51°21.355 2°45.764 5.6 349 15.1 102120 41
2010-09-01 07:00:16 51°21.367 2°45.743 5.4 350 15.1 102120 41
2010-09-01 07:00:21 51°21.38 2°45.722 6.3 350 15.1 102130 43
2010-09-01 07:00:26 51°21.392 2°45.701 5.7 344 15.1 102130 43
2010-09-01 07:00:31 51°21.405 2°45.68 7.4 351 15.1 102130 42
2010-09-01 07:00:37 51°21.419 2°45.654 7.5 351 15.1 102130 42
2010-09-01 07:00:41 51°21.429 2°45.637 6.9 353 15.1 102120 43
2010-09-01 07:00:45 51°21.439 2°45.621 6.7 350 15.1 102120 43
2010-09-01 07:00:51 51°21.454 2°45.596 7.6 354 15.1 102130 41
2010-09-01 07:00:56 51°21.466 2°45.574 7.3 355 15.1 102130 41
2010-09-01 07:01:01 51°21.478 2°45.553 6.2 357 15.1 102130 43
2010-09-01 07:01:06 51°21.49 2°45.531 7.6 353 15.1 102130 43
2010-09-01 07:01:11 51°21.502 2°45.51 7.2 351 15.1 102120 42
2010-09-01 07:01:16 51°21.513 2°45.487 8.8 353 15.1 102120 42
2010-09-01 07:01:21 51°21.525 2°45.465 7.3 356 15.1 102130 40
2010-09-01 07:01:25 51°21.534 2°45.447 7.5 354 15.1 102130 40
2010-09-01 07:01:31 51°21.548 2°45.421 7.8 354 15.1 102120 42
2010-09-01 07:01:36 51°21.559 2°45.399 8.2 356 15.1 102120 42
2010-09-01 07:01:41 51°21.571 2°45.377 6.9 356 15.1 102130 41
2010-09-01 07:01:46 51°21.582 2°45.354 7.5 359 15.1 102130 41
2010-09-01 07:01:51 51°21.594 2°45.332 6.8 355 15.1 102120 41
2010-09-01 07:01:56 51°21.605 2°45.309 6.4 353 15.1 102120 41
2010-09-01 07:02:01 51°21.617 2°45.287 6.5 357 15.1 102120 40
2010-09-01 07:02:05 51°21.626 2°45.27 5.9 354 15.1 102120 40
2010-09-01 07:02:11 51°21.64 2°45.243 6.1 355 15.1 102120 40
2010-09-01 07:02:16 51°21.651 2°45.221 5.9 356 15.1 102120 40
2010-09-01 07:02:21 51°21.663 2°45.199 6.4 350 15.1 102130 40
2010-09-01 07:02:26 51°21.675 2°45.177 7.1 352 15.1 102130 40
2010-09-01 07:02:31 51°21.686 2°45.154 6.9 351 15.1 102130 41
2010-09-01 07:02:37 51°21.7 2°45.127 7 352 15.1 102130 41
2010-09-01 07:02:41 51°21.709 2°45.109 6.5 351 15.2 102120 42
2010-09-01 07:02:45 51°21.718 2°45.091 6.5 350 15.2 102120 42
2010-09-01 07:02:51 51°21.732 2°45.064 6.6 348 15.2 102120 40
2010-09-01 07:02:57 51°21.746 2°45.038 6.1 350 15.2 102120 40
2010-09-01 07:03:01 51°21.755 2°45.02 6.6 347 15.2 102130 40
2010-09-01 07:03:06 51°21.766 2°44.997 7.2 351 15.2 102130 40
2010-09-01 07:03:11 51°21.778 2°44.975 7.6 351 15.2 102130 41
2010-09-01 07:03:16 51°21.789 2°44.952 6.2 350 15.2 102130 41
2010-09-01 07:03:21 51°21.8 2°44.93 6.4 353 15.2 102130 40
2010-09-01 07:03:25 51°21.809 2°44.912 6.2 351 15.2 102130 40
2010-09-01 07:03:31 51°21.822 2°44.885 5.8 347 15.2 102130 39
2010-09-01 07:03:36 51°21.833 2°44.863 7.1 348 15.2 102130 39
2010-09-01 07:03:41 51°21.844 2°44.841 7.5 350 15.2 102130 40
2010-09-01 07:03:46 51°21.855 2°44.818 6.7 350 15.2 102130 40
2010-09-01 07:03:51 51°21.866 2°44.796 7 349 15.2 102140 41
2010-09-01 07:03:56 51°21.877 2°44.775 6.1 354 15.2 102140 41
2010-09-01 07:04:01 51°21.888 2°44.752 6.9 349 15.2 102130 39
2010-09-01 07:04:05 51°21.897 2°44.735 6.8 348 15.2 102130 39
2010-09-01 07:04:11 51°21.91 2°44.709 6.9 347 15.2 102130 40
2010-09-01 07:04:16 51°21.921 2°44.687 6 352 15.2 102130 40
2010-09-01 07:04:21 51°21.932 2°44.665 6.9 346 15.2 102130 39
2010-09-01 07:04:26 51°21.942 2°44.643 6.7 284 15.2 102130 39
2010-09-01 07:04:31 51°21.954 2°44.622 6.6 347 15.2 102130 39
2010-09-01 07:04:37 51°21.966 2°44.595 6.6 346 15.2 102130 39
2010-09-01 07:04:41 51°21.975 2°44.578 6.7 345 15.2 102140 39
2010-09-01 07:04:46 51°21.986 2°44.556 6.4 347 15.2 102140 39
2010-09-01 07:04:51 51°21.997 2°44.535 5.9 348 15.1 102130 39
2010-09-01 07:04:57 51°22.011 2°44.509 5.9 345 15.1 102130 39
2010-09-01 07:05:01 51°22.019 2°44.492 6.1 348 15.1 102130 39
2010-09-01 07:05:06 51°22.03 2°44.47 6.6 347 15.1 102130 39
2010-09-01 07:05:11 51°22.041 2°44.449 5.9 348 15.1 102140 40
2010-09-01 07:05:16 51°22.052 2°44.427 5.9 351 15.1 102140 40
2010-09-01 07:05:21 51°22.064 2°44.405 6.1 351 15.2 102140 40
2010-09-01 07:05:25 51°22.072 2°44.388 5.5 352 15.2 102140 40
2010-09-01 07:05:31 51°22.085 2°44.362 5.8 353 15.1 102140 39
2010-09-01 07:05:36 51°22.096 2°44.341 5.6 354 15.1 102140 39
2010-09-01 07:05:41 51°22.107 2°44.319 5.2 352 15.1 102140 39
2010-09-01 07:05:46 51°22.119 2°44.298 6 351 15.1 102140 39
2010-09-01 07:05:51 51°22.13 2°44.276 4.9 352 15.1 102140 40
2010-09-01 07:05:56 51°22.141 2°44.255 5.2 356 15.1 102140 40
2010-09-01 07:06:01 51°22.152 2°44.233 6 353 15.1 102140 39
2010-09-01 07:06:05 51°22.16 2°44.215 5.8 354 15.1 102140 39
2010-09-01 07:06:11 51°22.174 2°44.19 5.2 350 15.2 102140 39
2010-09-01 07:06:16 51°22.185 2°44.168 6.5 348 15.2 102140 39
2010-09-01 07:06:21 51°22.197 2°44.147 6.9 350 15.2 102140 40
2010-09-01 07:06:26 51°22.207 2°44.125 6.4 350 15.2 102140 40
2010-09-01 07:06:31 51°22.218 2°44.104 7.1 350 15.2 102140 39
2010-09-01 07:06:36 51°22.23 2°44.082 6.2 350 15.2 102140 39
2010-09-01 07:06:41 51°22.24 2°44.06 6.6 354 15.2 102140 38
2010-09-01 07:06:45 51°22.249 2°44.043 6.1 351 15.2 102140 38
2010-09-01 07:06:51 51°22.262 2°44.017 5.9 352 15.2 102140 41
2010-09-01 07:06:56 51°22.274 2°43.996 6.3 352 15.2 102140 41
2010-09-01 07:07:01 51°22.285 2°43.974 6.3 351 15.2 102130 41
2010-09-01 07:07:06 51°22.296 2°43.953 6.8 352 15.2 102130 41
2010-09-01 07:07:11 51°22.307 2°43.931 7.1 355 15.1 102140 40
2010-09-01 07:07:17 51°22.32 2°43.905 5.9 354 15.1 102140 40
2010-09-01 07:07:21 51°22.329 2°43.888 6 353 15.1 102130 40
2010-09-01 07:07:25 51°22.338 2°43.871 6.1 353 15.1 102130 40
2010-09-01 07:07:31 51°22.351 2°43.845 6 350 15.2 102130 40
2010-09-01 07:07:36 51°22.362 2°43.824 6.2 352 15.2 102130 40
2010-09-01 07:07:41 51°22.373 2°43.802 6.3 350 15.2 102130 41
2010-09-01 07:07:46 51°22.384 2°43.781 5.5 353 15.2 102130 41
2010-09-01 07:07:51 51°22.395 2°43.759 5.9 352 15.1 102140 39
2010-09-01 07:07:56 51°22.405 2°43.737 5 351 15.1 102140 39
2010-09-01 07:08:01 51°22.417 2°43.716 4.7 351 15.1 102140 39
2010-09-01 07:08:05 51°22.426 2°43.699 6.1 350 15.1 102140 39
2010-09-01 07:08:11 51°22.439 2°43.673 5.6 350 15.1 102140 39
2010-09-01 07:08:16 51°22.45 2°43.652 5.6 350 15.1 102140 39
2010-09-01 07:08:21 51°22.461 2°43.63 5.4 351 15.1 102140 40
2010-09-01 07:08:26 51°22.472 2°43.608 6.4 278 15.1 102140 40
2010-09-01 07:08:31 51°22.483 2°43.586 6.6 348 15.1 102150 39
2010-09-01 07:08:37 51°22.497 2°43.562 6.4 351 15.1 102150 39
2010-09-01 07:08:41 51°22.505 2°43.545 7 352 15.2 102140 40
2010-09-01 07:08:46 51°22.515 2°43.526 5.9 352 15.2 102140 40
2010-09-01 07:08:51 51°22.525 2°43.508 5.8 353 15.2 102140 41
2010-09-01 07:08:57 51°22.536 2°43.488 6 353 15.2 102140 41
2010-09-01 07:09:01 51°22.543 2°43.476 5.2 353 15.2 102140 39
2010-09-01 07:09:06 51°22.551 2°43.461 5.2 354 15.2 102140 39
2010-09-01 07:09:11 51°22.559 2°43.447 5.5 355 15.1 102130 40
2010-09-01 07:09:16 51°22.566 2°43.434 5.4 357 15.1 102130 40
2010-09-01 07:09:21 51°22.573 2°43.422 5.1 359 15.2 102140 40
2010-09-01 07:09:25 51°22.578 2°43.412 5 359 15.2 102140 40
2010-09-01 07:09:31 51°22.586 2°43.399 4.8 358 15.1 102150 39
2010-09-01 07:09:36 51°22.593 2°43.388 4.8 358 15.1 102150 39
2010-09-01 07:09:41 51°22.599 2°43.378 5.3 1 15.2 102150 39
2010-09-01 07:09:46 51°22.605 2°43.369 4.1 4 15.2 102150 39
2010-09-01 07:09:51 51°22.61 2°43.36 3.3 4 15.2 102150 39
2010-09-01 07:09:56 51°22.616 2°43.352 3.8 2 15.2 102150 39
2010-09-01 07:10:01 51°22.621 2°43.345 4.6 4 15.2 102140 40
2010-09-01 07:10:05 51°22.624 2°43.338 4.3 7 15.2 102140 40
2010-09-01 07:10:11 51°22.63 2°43.33 4 7 15.2 102140 39
2010-09-01 07:10:16 51°22.635 2°43.323 3.7 8 15.2 102140 39
2010-09-01 07:10:21 51°22.639 2°43.317 4.1 7 15.2 102150 42
2010-09-01 07:10:26 51°22.644 2°43.311 3.8 12 15.2 102150 42
2010-09-01 07:10:31 51°22.648 2°43.305 4.5 11 15.2 102150 42
2010-09-01 07:10:36 51°22.651 2°43.301 4.4 11 15.2 102150 42
2010-09-01 07:10:41 51°22.655 2°43.297 4.2 10 15.2 102150 39
2010-09-01 07:10:45 51°22.657 2°43.295 3.4 14 15.2 102150 39
2010-09-01 07:10:51 51°22.66 2°43.293 3.3 15 15.2 102160 39
2010-09-01 07:10:56 51°22.662 2°43.293 3.3 13 15.2 102160 39
2010-09-01 07:11:01 51°22.664 2°43.293 2.9 14 15.2 102140 39
2010-09-01 07:11:06 51°22.666 2°43.293 3.4 15 15.2 102140 39
2010-09-01 07:11:11 51°22.667 2°43.294 3.2 17 15.2 102150 39
2010-09-01 07:11:16 51°22.668 2°43.296 3.3 18 15.2 102150 39
2010-09-01 07:11:21 51°22.668 2°43.298 3.1 18 15.2 102150 41
2010-09-01 07:11:25 51°22.668 2°43.299 3.6 18 15.2 102150 41
2010-09-01 07:11:31 51°22.669 2°43.302 3.1 19 15.2 102150 41
2010-09-01 07:11:36 51°22.67 2°43.303 3.5 13 15.2 102150 41
2010-09-01 07:11:41 51°22.671 2°43.304 3.5 15 15.2 102150 41
2010-09-01 07:11:46 51°22.672 2°43.305 3.4 19 15.2 102150 41
2010-09-01 07:11:51 51°22.673 2°43.306 3 20 15.2 102150 39
2010-09-01 07:11:56 51°22.674 2°43.307 3 21 15.2 102150 39
2010-09-01 07:12:01 51°22.675 2°43.308 3.4 23 15.2 102160 39
2010-09-01 07:12:05 51°22.676 2°43.308 3.5 24 15.2 102160 39
2010-09-01 07:12:11 51°22.677 2°43.31 3.5 25 15.2 102150 42
2010-09-01 07:12:16 51°22.678 2°43.31 3 28 15.2 102150 42
2010-09-01 07:12:21 51°22.679 2°43.311 3.7 26 15.3 102150 42
2010-09-01 07:12:26 51°22.68 2°43.313 3.4 32 15.3 102150 42
2010-09-01 07:12:31 51°22.681 2°43.314 3.3 29 15.3 102150 42
2010-09-01 07:12:36 51°22.682 2°43.315 4.1 29 15.3 102150 42
2010-09-01 07:12:41 51°22.683 2°43.316 4 28 15.3 102150 41
2010-09-01 07:12:45 51°22.684 2°43.317 3.9 27 15.3 102150 41
2010-09-01 07:12:51 51°22.685 2°43.319 3.4 28 15.3 102150 40
2010-09-01 07:12:56 51°22.686 2°43.32 4.2 27 15.3 102150 40
2010-09-01 07:13:01 51°22.686 2°43.321 4.2 27 15.3 102150 40
2010-09-01 07:13:06 51°22.687 2°43.322 4.6 26 15.3 102150 40
2010-09-01 07:13:11 51°22.688 2°43.323 3.4 28 15.3 102150 40
2010-09-01 07:13:16 51°22.689 2°43.324 3.6 28 15.3 102150 40
2010-09-01 07:13:21 51°22.69 2°43.325 3.5 30 15.3 102160 39
2010-09-01 07:13:25 51°22.69 2°43.326 3.9 27 15.3 102160 39
2010-09-01 07:13:31 51°22.691 2°43.327 3.3 28 15.3 102150 41
2010-09-01 07:13:36 51°22.692 2°43.328 3.4 27 15.3 102150 41
2010-09-01 07:13:41 51°22.693 2°43.33 3.5 28 15.3 102150 41
2010-09-01 07:13:46 51°22.694 2°43.33 3.3 29 15.3 102150 41
2010-09-01 07:13:51 51°22.695 2°43.331 3.5 28 15.3 102150 40
2010-09-01 07:13:57 51°22.696 2°43.331 2.8 27 15.3 102150 40
2010-09-01 07:14:01 51°22.697 2°43.332 3.1 28 15.3 102150 41
2010-09-01 07:14:05 51°22.697 2°43.333 3.1 29 15.3 102150 41
2010-09-01 07:14:11 51°22.698 2°43.334 3 29 15.3 102160 41
2010-09-01 07:14:16 51°22.699 2°43.335 2.9 29 15.3 102160 41
2010-09-01 07:14:21 51°22.7 2°43.336 2.8 29 15.3 102150 41
2010-09-01 07:14:26 51°22.7 2°43.337 2.7 27 15.3 102150 41
2010-09-01 07:14:31 51°22.701 2°43.338 2.8 27 15.3 102150 39
2010-09-01 07:14:36 51°22.702 2°43.339 2.9 25 15.3 102150 39
2010-09-01 07:14:41 51°22.703 2°43.34 2.9 28 15.3 102150 38
2010-09-01 07:14:45 51°22.704 2°43.34 2.3 30 15.3 102150 38
2010-09-01 07:14:51 51°22.704 2°43.341 2.4 28 15.3 102150 41
2010-09-01 07:14:56 51°22.706 2°43.342 2.3 29 15.3 102150 41
2010-09-01 07:15:01 51°22.706 2°43.342 2.8 29 15.3 102150 39
2010-09-01 07:15:06 51°22.707 2°43.343 2.1 24 15.3 102150 39
2010-09-01 07:15:11 51°22.708 2°43.343 2.2 25 15.3 102150 39
2010-09-01 07:15:17 51°22.709 2°43.344 1.6 25 15.3 102150 39
2010-09-01 07:15:21 51°22.71 2°43.345 2.2 30 15.3 102160 39
2010-09-01 07:15:26 51°22.71 2°43.345 2.2 30 15.3 102160 39
2010-09-01 07:15:31 51°22.711 2°43.346 2.4 29 15.3 102150 39
2010-09-01 07:15:37 51°22.712 2°43.346 2.7 27 15.3 102150 39
2010-09-01 07:15:41 51°22.713 2°43.347 2.8 27 15.3 102160 42
2010-09-01 07:15:46 51°22.714 2°43.347 2.6 27 15.3 102160 42
2010-09-01 07:15:51 51°22.715 2°43.348 3.4 29 15.3 102150 39
2010-09-01 07:15:57 51°22.716 2°43.349 3.2 32 15.3 102150 39
2010-09-01 07:16:01 51°22.716 2°43.349 3.5 33 15.3 102160 39
2010-09-01 07:16:06 51°22.717 2°43.349 3.7 32 15.3 102160 39
2010-09-01 07:16:11 51°22.718 2°43.35 4 28 15.3 102160 39
2010-09-01 07:16:17 51°22.719 2°43.351 4.7 28 15.3 102160 39
2010-09-01 07:16:21 51°22.719 2°43.351 4.7 33 15.3 102150 39
2010-09-01 07:16:26 51°22.72 2°43.351 4.2 30 15.3 102150 39
2010-09-01 07:16:31 51°22.721 2°43.352 4.3 28 15.3 102150 40
2010-09-01 07:16:37 51°22.722 2°43.353 5 31 15.3 102150 40
2010-09-01 07:16:41 51°22.722 2°43.354 4.7 32 15.3 102160 42
2010-09-01 07:16:46 51°22.723 2°43.354 4.2 31 15.3 102160 42
2010-09-01 07:16:51 51°22.724 2°43.355 4.7 29 15.4 102150 42
2010-09-01 07:16:56 51°22.724 2°43.355 4.9 30 15.4 102150 42
2010-09-01 07:17:01 51°22.725 2°43.356 4.3 29 15.4 102150 42
2010-09-01 07:17:06 51°22.726 2°43.356 4 32 15.4 102150 42
2010-09-01 07:17:11 51°22.727 2°43.357 3.8 30 15.3 102160 40
2010-09-01 07:17:16 51°22.727 2°43.357 3.8 29 15.3 102160 40
2010-09-01 07:17:21 51°22.728 2°43.358 3.5 28 15.3 102150 40
2010-09-01 07:17:26 51°22.729 2°43.359 4.2 32 15.3 102150 40
2010-09-01 07:17:31 51°22.729 2°43.359 4.2 30 15.3 102160 40
2010-09-01 07:17:36 51°22.73 2°43.36 4.3 30 15.3 102160 40
2010-09-01 07:17:41 51°22.731 2°43.36 4.1 30 15.3 102150 41
2010-09-01 07:17:45 51°22.731 2°43.36 3.5 30 15.3 102150 41
2010-09-01 07:17:51 51°22.732 2°43.361 3.4 30 15.3 102160 41
2010-09-01 07:17:56 51°22.732 2°43.362 3.3 30 15.3 102160 41
2010-09-01 07:18:01 51°22.733 2°43.362 3.6 30 15.3 102160 39
2010-09-01 07:18:06 51°22.734 2°43.364 3.3 29 15.3 102160 39
2010-09-01 07:18:11 51°22.734 2°43.364 3.2 28 15.3 102150 41
2010-09-01 07:18:17 51°22.735 2°43.365 3.2 27 15.3 102150 41
2010-09-01 07:18:21 51°22.736 2°43.366 2.9 31 15.3 102150 41
2010-09-01 07:18:25 51°22.736 2°43.366 3.2 31 15.3 102150 41
2010-09-01 07:18:31 51°22.737 2°43.367 3.8 29 15.3 102160 39
2010-09-01 07:18:36 51°22.737 2°43.368 3.3 26 15.3 102160 39
2010-09-01 07:18:41 51°22.738 2°43.368 3.7 28 15.3 102160 41
2010-09-01 07:18:46 51°22.738 2°43.369 3.9 24 15.3 102160 41
2010-09-01 07:18:51 51°22.739 2°43.369 4 27 15.3 102160 39
2010-09-01 07:18:56 51°22.74 2°43.371 3.1 20 15.3 102160 39
2010-09-01 07:19:01 51°22.74 2°43.372 3.7 23 15.3 102160 39
2010-09-01 07:19:05 51°22.741 2°43.373 4.1 25 15.3 102160 39
2010-09-01 07:19:11 51°22.741 2°43.373 3.8 26 15.3 102150 39